SWAS (25560 NORAD) Tracking and Keplerian Element Data

This shows tracking and keplerian element data for the satellite.

Feedback or suggestion? Click here.




ElementValue
Catalog25560
NameSWAS
Epoch Orbit6945
Epoch Day231.21964992
Epoch Year2018
RAAN264.6179
Inclination69.8975
Eccentricity0.001122
Argument of Perigee267.3885
Mean Anonmoly92.5987
Mean Motion14.93620825
Decay Rate6.5E-07
L11 25560U 98071A 18231.21964992 .00000065 00000-0 14767-4 0 9990
L22 25560 69.8975 264.6179 0011220 267.3885 92.5987 14.93620825 69458

Live tracking and technical data element details for SWAS (NORAD 25560). SWAS can be tracked NOW for your location showing map with azimuth and elevation plus other details from your city location.

Track the satellite on the map from your city or location and see movement details for azimuth, elevation, latitude, longitude, range, height, and movement on the map or in text.







IsCatalogInMostPopularTable: catalog: 25560, numindb: 40
Update: records affected: 1



GetName: 25560 SWAS

Hit Count: updated at: Mon, 20 Aug 2018 00:45:17 GMT